Vertical_Velocity
-2 -5 -1 -6 -9 -5 -8 -3 14 6 4 1 -3 4 2 -3 1 -1 2 4 -1 2 -0 -0 1 1 -0
-2 -1 1 -1 -6 2 -1 10 1 5 -0 -4 3 -1 -2 2 1 -5 -1 3 -0 -0 2 1 -1 1 -1
-2 -1 -2 -1 -1 1 3 2 2 -6 1 0 1 3 3 -2 -1 -3 -1 5 5 1 -1 3 2 1 -0
-3 -2 -2 -4 -5 -3 -0 -0 3 3 3 4 1 -0 0 -5 -0 3 2 3 -2 -2 3 -1 1 1 1
-2 -3 -5 -3 1 -2 -5 -4 -4 -3 -0 -1 -2 -0 -1 -2 0 2 1 0 -3 -0 3 -0 -1 -2 2
-2 -3 -1 -1 -2 -3 -3 -3 -2 -0 1 -2 -1 2 -2 -1 2 4 -2 -4 -2 -3 3 -3 -5 1 3
-2 -2 -2 -2 -2 -1 -1 -1 -1 0 -0 4 -5 -1 -5 1 -1 0 -1 -1 -3 3 -6 -0 0 4 -0
-1 -1 -1 0 -1 2 1 0 0 1 -2 1 -0 0 -3 -5 -3 -0 -1 -0 0 -0 6 4 -2 -2 -2
-0 0 1 1 -0 1 -1 -1 0 -2 -3 -1 -3 0 -0 1 1 -1 2 2 4 3 -0 -1 0 1 3
0 -1 0 -1 -2 1 -0 -0 1 0 -1 -3 0 -1 -2 -2 -1 -2 1 0 0 -0 0 1 1 3 3
-1 -1 -1 -0 -1 -1 -1 -1 -1 0 -1 -0 1 0 -1 0 -1 -1 -0 -0 1 1 2 2 1 -1 -0
-1 -1 -1 -0 -1 -1 0 -0 -0 0 -2 -1 3 -0 -0 0 1 4 -4 1 0 2 1 -3 -3 -3 -3
-2 -1 -1 -0 -0 -1 -1 -1 -0 -0 -0 -1 -1 -1 -2 2 -1 3 -4 11 1 2 -3 -3 -3 -6 -3
-2 -1 -1 -1 -0 0 -0 -1 0 -3 -0 1 -1 -2 0 0 -3 9 -4 -8 5 5 -2 3 1 -0 -2
-1 -1 -1 -1 -1 -0 -0 0 -0 1 1 -4 -5 -4 -3 -1 -2 1 4 -3 -2 2 -7 -1 5 4 0
-1 -0 -1 -1 -1 -1 -2 -2 -0 0 1 -0 -0 -2 -1 5 -9 -5 -1 -3 3 -3 0 -11 2 11 -4
-0 -1 -0 -1 -1 0 -0 -1 1 -1 -0 -0 -1 -5 -7 -5 3 0 -3 2 -3 3 -3 -3 -13 20 -9
Height
3045 3044 3040 3037 3033 3032 3030 3029 3029 3032 3033 3034 3037 3037 3037 3038 3039 3041 3042 3041 3043 3044 3044 3044 3045 3047 3048
3037 3034 3031 3029 3027 3024 3023 3021 3021 3023 3025 3026 3026 3030 3029 3029 3030 3031 3033 3033 3034 3034 3034 3035 3035 3035 3036
3028 3026 3024 3022 3021 3020 3018 3017 3016 3017 3018 3018 3020 3021 3021 3020 3020 3022 3023 3023 3023 3023 3023 3024 3024 3025 3025
3022 3019 3019 3018 3018 3017 3015 3014 3013 3013 3012 3012 3013 3013 3013 3012 3012 3013 3013 3013 3013 3013 3013 3013 3012 3013 3013
3016 3015 3014 3014 3012 3010 3010 3009 3008 3007 3006 3006 3006 3005 3004 3004 3004 3004 3003 3003 3002 3002 3000 3000 3000 3000 3000
3012 3010 3008 3006 3005 3004 3003 3001 3000 2999 2998 2998 2997 2996 2994 2993 2994 2994 2992 2991 2990 2989 2989 2989 2990 2991 2991
3008 3005 3002 3000 2999 2996 2994 2993 2992 2990 2988 2990 2985 2984 2982 2983 2982 2982 2981 2980 2981 2981 2982 2983 2983 2984 2984
3002 2999 2996 2993 2990 2988 2986 2984 2982 2979 2976 2979 2976 2973 2972 2972 2973 2973 2974 2974 2975 2975 2976 2977 2977 2977 2977
2996 2992 2989 2986 2983 2980 2977 2974 2972 2969 2966 2967 2965 2965 2966 2967 2968 2968 2968 2969 2969 2969 2968 2968 2968 2968 2969
2990 2986 2982 2979 2975 2972 2970 2967 2964 2962 2961 2963 2961 2961 2960 2960 2961 2962 2961 2960 2960 2960 2960 2960 2961 2961 2962
2984 2980 2976 2973 2969 2966 2963 2961 2959 2957 2956 2957 2957 2955 2955 2956 2956 2955 2954 2953 2953 2953 2953 2953 2953 2953 2954
2979 2974 2970 2967 2964 2961 2958 2957 2955 2954 2952 2952 2953 2951 2950 2951 2951 2951 2947 2946 2945 2945 2944 2943 2943 2943 2942
2973 2969 2965 2962 2959 2956 2954 2953 2951 2949 2948 2946 2945 2944 2943 2943 2943 2943 2941 2940 2937 2935 2934 2933 2932 2932 2932
2967 2963 2960 2957 2953 2951 2949 2947 2947 2944 2942 2940 2938 2936 2934 2933 2932 2935 2933 2929 2931 2928 2925 2924 2923 2923 2922
2961 2958 2954 2951 2948 2945 2943 2941 2940 2938 2936 2931 2928 2926 2925 2923 2922 2921 2921 2921 2920 2918 2915 2913 2913 2913 2912
2956 2952 2949 2946 2943 2940 2937 2935 2933 2931 2929 2926 2922 2918 2916 2916 2912 2910 2910 2908 2908 2905 2903 2901 2901 2903 2900
2950 2946 2943 2940 2937 2934 2931 2928 2926 2923 2921 2918 2914 2909 2906 2905 2906 2903 2899 2898 2895 2893 2892 2890 2888 2890 2889